This is the latest recevied weather packets stored in our database for station/object KC2GYU. If no packets are shown the sender has not sent any weather packets the latest 10 day(s).
| Time | Temp. | Humidity | Pressure | Rain* | Wind** | Luminosity | Snow |
|---|---|---|---|---|---|---|---|
| 1777759633 | 15° C | 55% | 1010.8 hPa | 0 mm | - | 55 W/m² | - |
| 1777759329 | 15° C | 55% | 1010.9 hPa | 0 mm | - | 75 W/m² | - |
| 1777759026 | 15° C | 54% | 1010.9 hPa | 0 mm | - | 91 W/m² | - |
| 1777758723 | 15° C | 55% | 1010.8 hPa | 0 mm | - | 114 W/m² | - |
| 1777758421 | 15° C | 55% | 1010.8 hPa | 0 mm | - | 93 W/m² | - |
| 1777758118 | 15° C | 56% | 1011 hPa | 0 mm | - | 97 W/m² | - |
| 1777757815 | 15° C | 54% | 1010.8 hPa | 0 mm | - | 92 W/m² | - |
| 1777757512 | 15.56° C | 53% | 1010.9 hPa | 0 mm | - | 107 W/m² | - |
| 1777757210 | 15° C | 54% | 1010.7 hPa | 0 mm | - | 120 W/m² | - |
| 1777756908 | 15° C | 54% | 1011 hPa | 0 mm | - | 115 W/m² | - |
| 1777756603 | 15.56° C | 54% | 1010.7 hPa | 0 mm | - | 109 W/m² | - |
| 1777756301 | 15.56° C | 56% | 1010.6 hPa | 0 mm | - | 136 W/m² | - |
| 1777755999 | 15.56° C | 56% | 1010.5 hPa | 0 mm | - | 160 W/m² | - |
| 1777755695 | 15.56° C | 56% | 1010.5 hPa | 0 mm | - | 166 W/m² | - |
| 1777755392 | 15.56° C | 57% | 1010.5 hPa | 0 mm | - | 138 W/m² | - |
| 1777755089 | 15.56° C | 57% | 1010.8 hPa | 0 mm | - | 135 W/m² | - |
| 1777754786 | 15.56° C | 58% | 1010.4 hPa | 0 mm | - | 177 W/m² | - |
| 1777754483 | 15.56° C | 57% | 1010.7 hPa | 0 mm | - | 138 W/m² | - |
| 1777754180 | 15.56° C | 59% | 1010.5 hPa | 0 mm | - | 163 W/m² | - |
| 1777753878 | 15.56° C | 59% | 1010.5 hPa | 0 mm | - | 145 W/m² | - |
| 1777753573 | 15.56° C | 60% | 1010.6 hPa | 0 mm | - | 173 W/m² | - |
| 1777753271 | 16.11° C | 59% | 1010.5 hPa | 0 mm | - | 237 W/m² | - |
| 1777752968 | 16.11° C | 58% | 1010.6 hPa | 0 mm | - | 225 W/m² | - |
| 1777752664 | 16.11° C | 58% | 1010.6 hPa | 0 mm | - | 204 W/m² | - |
| 1777752360 | 15.56° C | 59% | 1010.4 hPa | 0 mm | - | 232 W/m² | - |
* Rain latest hour (hover to see other rain measurements)
** Current wind speed in m/s (hover to see current wind gust speed)